,,,PA_Meas_PMT16A,,PR_Meas_QMR101_102,,RH_Meas_QMH101,,SR_Meas_QMS101,,TA_Meas_QMH101,,GenWind,,GenWind,
date,time,status,PA,status,PR,status,RH,status,SR,status,TA,status,DirAvg,status,SpdAvg,
2009-04-13, 00:00:05,VALID,1002.01,VALID,0,VALID,91.8975,VALID,0,VALID,25.67,VALID,71,VALID,0.263281,
2009-04-13, 00:01:05,VALID,1002,VALID,0,VALID,91.8899,VALID,0,VALID,25.6506,VALID,71,VALID,0.301953,
2009-04-13, 00:02:05,VALID,1001.99,VALID,0,VALID,91.928,VALID,0,VALID,25.6311,VALID,71,VALID,0.110937,
2009-04-13, 00:03:05,VALID,1002,VALID,0,VALID,91.9204,VALID,0,VALID,25.6292,VALID,71,VALID,0.0847656,
2009-04-13, 00:04:05,VALID,1002.02,VALID,0,VALID,91.928,VALID,0,VALID,25.6097,VALID,71,VALID,0,
2009-04-13, 00:05:05,VALID,1002.03,VALID,0,VALID,91.9738,VALID,0,VALID,25.6311,VALID,71,VALID,0.438672,
2009-04-13, 00:06:05,VALID,1002.03,VALID,0,VALID,92.0272,VALID,0,VALID,25.6292,VALID,71,VALID,0.166016,
2009-04-13, 00:07:05,VALID,1002,VALID,0,VALID,92.0653,VALID,0,VALID,25.6097,VALID,71,VALID,0.109375,
2009-04-13, 00:08:05,VALID,1001.94,VALID,0,VALID,92.0272,VALID,0.100563,VALID,25.6292,VALID,71,VALID,0.109766,
2009-04-13, 00:09:05,VALID,1001.92,VALID,0,VALID,92.0501,VALID,0,VALID,25.6506,VALID,71,VALID,0.373047,
2009-04-13, 00:10:05,VALID,1001.87,VALID,0,VALID,92.0348,VALID,0,VALID,25.6097,VALID,50,VALID,0.373437,
2009-04-13, 00:11:05,VALID,1001.83,VALID,0,VALID,91.9738,VALID,0,VALID,25.5921,VALID,41,VALID,0.471484,
2009-04-13, 00:12:05,VALID,1001.79,VALID,0,VALID,91.9433,VALID,0,VALID,25.5727,VALID,17,VALID,0.736719,
2009-04-13, 00:13:04,VALID,1001.75,VALID,0,VALID,92.1187,VALID,0.100563,VALID,25.5123,VALID,5,VALID,0.498047,
2009-04-13, 00:14:04,VALID,1001.7,VALID,0,VALID,92.2103,VALID,0,VALID,25.4948,VALID,4,VALID,0.640234,
2009-04-13, 00:15:04,VALID,1001.72,VALID,0,VALID,92.3781,VALID,0,VALID,25.5337,VALID,2,VALID,0.636328,
2009-04-13, 00:16:04,VALID,1001.72,VALID,0,VALID,92.4468,VALID,0,VALID,25.5142,VALID,2,VALID,0.538281,
2009-04-13, 00:17:04,VALID,1001.72,VALID,0,VALID,92.3781,VALID,0,VALID,25.4948,VALID,2,VALID,0.490234,
2009-04-13, 00:18:04,VALID,1001.72,VALID,0,VALID,92.4468,VALID,0,VALID,25.4948,VALID,2,VALID,0.415625,
2009-04-13, 00:19:04,VALID,1001.75,VALID,0,VALID,92.5231,VALID,0,VALID,25.4948,VALID,2,VALID,0.304688,
2009-04-13, 00:20:04,VALID,1001.74,VALID,0,VALID,92.5231,VALID,0.100563,VALID,25.4948,VALID,2,VALID,0.271875,
2009-04-13, 00:21:04,VALID,1001.74,VALID,0,VALID,92.6222,VALID,0,VALID,25.4539,VALID,2,VALID,0.00664063,
2009-04-13, 00:22:04,VALID,1001.75,VALID,0,VALID,92.6299,VALID,0,VALID,25.4734,VALID,2,VALID,0.304688,
2009-04-13, 00:23:04,VALID,1001.76,VALID,0,VALID,92.5841,VALID,0,VALID,25.4753,VALID,2,VALID,0,
2009-04-13, 00:24:04,VALID,1001.72,VALID,0,VALID,92.607,VALID,0,VALID,25.4948,VALID,2,VALID,0,
2009-04-13, 00:25:04,VALID,1001.71,VALID,0,VALID,92.5993,VALID,0.100563,VALID,25.4948,VALID,2,VALID,0,
2009-04-13, 00:26:04,VALID,1001.69,VALID,0,VALID,92.5841,VALID,0,VALID,25.4753,VALID,2,VALID,0,
2009-04-13, 00:27:04,VALID,1001.65,VALID,0,VALID,92.5688,VALID,0,VALID,25.4948,VALID,2,VALID,0,
2009-04-13, 00:28:04,VALID,1001.63,VALID,0,VALID,92.5307,VALID,0,VALID,25.4753,VALID,2,VALID,0,
2009-04-13, 00:29:04,VALID,1001.62,VALID,0,VALID,92.5154,VALID,0,VALID,25.4539,VALID,2,VALID,0,
2009-04-13, 00:30:04,VALID,1001.58,VALID,0,VALID,92.5078,VALID,0,VALID,25.4558,VALID,2,VALID,0,
2009-04-13, 00:31:04,VALID,1001.56,VALID,0,VALID,92.5002,VALID,0,VALID,25.4753,VALID,2,VALID,0,
2009-04-13, 00:32:04,VALID,1001.55,VALID,0,VALID,92.5231,VALID,0.100563,VALID,25.4539,VALID,2,VALID,0,
2009-04-13, 00:33:04,VALID,1001.51,VALID,0,VALID,92.4849,VALID,0,VALID,25.4558,VALID,2,VALID,0.0484375,
2009-04-13, 00:34:04,VALID,1001.49,VALID,0,VALID,92.4163,VALID,0,VALID,25.4149,VALID,4,VALID,0.345313,
2009-04-13, 00:35:04,VALID,1001.44,VALID,0,VALID,92.4468,VALID,0,VALID,25.3974,VALID,4,VALID,0.482812,
2009-04-13, 00:36:04,VALID,1001.42,VALID,0,VALID,92.5688,VALID,0.100563,VALID,25.4363,VALID,4,VALID,0.377734,
2009-04-13, 00:37:04,VALID,1001.38,VALID,0,VALID,92.462,VALID,0,VALID,25.4363,VALID,4,VALID,0.313281,
2009-04-13, 00:38:04,VALID,1001.39,VALID,0,VALID,92.4697,VALID,0.100563,VALID,25.376,VALID,360,VALID,0.651563,
2009-04-13, 00:39:04,VALID,1001.39,VALID,0,VALID,92.5688,VALID,0.100563,VALID,25.3974,VALID,359,VALID,0.741016,
2009-04-13, 00:40:04,VALID,1001.39,VALID,0,VALID,92.6604,VALID,0,VALID,25.4149,VALID,358,VALID,0.436328,
2009-04-13, 00:41:04,VALID,1001.41,VALID,0,VALID,92.4925,VALID,0,VALID,25.4169,VALID,16,VALID,0.668359,
2009-04-13, 00:42:04,VALID,1001.38,VALID,0,VALID,92.6451,VALID,0,VALID,25.3955,VALID,17,VALID,0.342187,
2009-04-13, 00:43:04,VALID,1001.37,VALID,0,VALID,92.607,VALID,0,VALID,25.4149,VALID,17,VALID,0.491797,
2009-04-13, 00:44:04,VALID,1001.37,VALID,0,VALID,92.5688,VALID,0,VALID,25.4344,VALID,17,VALID,0.316406,
2009-04-13, 00:45:04,VALID,1001.37,VALID,0,VALID,92.4773,VALID,0,VALID,25.4539,VALID,17,VALID,0,
2009-04-13, 00:46:04,VALID,1001.36,VALID,0,VALID,92.3934,VALID,0,VALID,25.4363,VALID,24,VALID,0.481641,
2009-04-13, 00:47:04,VALID,1001.35,VALID,0,VALID,92.3781,VALID,0,VALID,25.4169,VALID,26,VALID,0.0871094,
2009-04-13, 00:48:04,VALID,1001.35,VALID,0,VALID,92.3476,VALID,0,VALID,25.3779,VALID,72,VALID,0.688672,
2009-04-13, 00:49:04,VALID,1001.29,VALID,0,VALID,92.401,VALID,0,VALID,25.3584,VALID,70,VALID,0.268359,
2009-04-13, 00:50:04,VALID,1001.29,VALID,0,VALID,92.4239,VALID,0,VALID,25.337,VALID,70,VALID,0.129297,
2009-04-13, 00:51:04,VALID,1001.22,VALID,0,VALID,92.4773,VALID,0,VALID,25.339,VALID,70,VALID,0.0773437,
2009-04-13, 00:52:04,VALID,1001.2,VALID,0,VALID,92.5154,VALID,0,VALID,25.339,VALID,70,VALID,0.254297,
2009-04-13, 00:53:04,VALID,1001.17,VALID,0,VALID,92.5307,VALID,0,VALID,25.2981,VALID,70,VALID,0.0535156,
2009-04-13, 00:54:04,VALID,1001.11,VALID,0,VALID,92.6375,VALID,0,VALID,25.3195,VALID,70,VALID,0.187891,
2009-04-13, 00:55:04,VALID,1001.08,VALID,0,VALID,92.6604,VALID,0,VALID,25.3,VALID,70,VALID,0.214844,
2009-04-13, 00:56:04,VALID,1001.07,VALID,0,VALID,92.6985,VALID,0,VALID,25.2981,VALID,38,VALID,0.394141,
2009-04-13, 00:57:04,VALID,1001.02,VALID,0,VALID,92.7214,VALID,0,VALID,25.3,VALID,38,VALID,0.416406,
2009-04-13, 00:58:04,VALID,1001.01,VALID,0,VALID,92.7519,VALID,0,VALID,25.3,VALID,16,VALID,0.514453,
2009-04-13, 00:59:04,VALID,1000.96,VALID,0,VALID,92.874,VALID,0,VALID,25.3176,VALID,24,VALID,0.608203,
2009-04-13, 01:00:04,VALID,1000.95,VALID,0,VALID,92.7824,VALID,0,VALID,25.339,VALID,24,VALID,0.548437,
2009-04-13, 01:01:04,VALID,1000.94,VALID,0,VALID,92.7367,VALID,0,VALID,25.3584,VALID,24,VALID,0.536328,
2009-04-13, 01:02:04,VALID,1000.94,VALID,0,VALID,92.7901,VALID,0,VALID,25.337,VALID,24,VALID,0.380469,
2009-04-13, 01:03:04,VALID,1000.95,VALID,0,VALID,92.9121,VALID,0,VALID,25.3974,VALID,8,VALID,0.420312,
2009-04-13, 01:04:04,VALID,1000.95,VALID,0,VALID,92.813,VALID,0,VALID,25.4363,VALID,8,VALID,0.314063,
2009-04-13, 01:05:04,VALID,1000.95,VALID,0,VALID,92.6756,VALID,0,VALID,25.4149,VALID,8,VALID,0.288281,
2009-04-13, 01:06:04,VALID,1000.98,VALID,0,VALID,92.5993,VALID,0,VALID,25.3955,VALID,8,VALID,0.615234,
2009-04-13, 01:07:04,VALID,1000.96,VALID,0,VALID,92.6528,VALID,0,VALID,25.4149,VALID,8,VALID,0.308594,
2009-04-13, 01:08:04,VALID,1000.95,VALID,0,VALID,92.6528,VALID,0,VALID,25.4363,VALID,8,VALID,0.250781,
2009-04-13, 01:09:04,VALID,1000.97,VALID,0,VALID,92.7062,VALID,0,VALID,25.4539,VALID,17,VALID,0.287109,
2009-04-13, 01:10:04,VALID,1000.96,VALID,0,VALID,92.6604,VALID,0,VALID,25.4948,VALID,17,VALID,0.259375,
2009-04-13, 01:11:04,VALID,1000.95,VALID,0,VALID,92.5612,VALID,0,VALID,25.4928,VALID,17,VALID,0.246875,
2009-04-13, 01:12:04,VALID,1000.97,VALID,0,VALID,92.5154,VALID,0,VALID,25.4928,VALID,17,VALID,0.157422,
2009-04-13, 01:13:04,VALID,1000.94,VALID,0,VALID,92.4544,VALID,0,VALID,25.5142,VALID,17,VALID,0.526563,
2009-04-13, 01:14:04,VALID,1000.91,VALID,0,VALID,92.5231,VALID,0,VALID,25.5318,VALID,15,VALID,0.100391,
2009-04-13, 01:15:04,VALID,1000.89,VALID,0,VALID,92.4086,VALID,0,VALID,25.5513,VALID,15,VALID,0.180469,
2009-04-13, 01:16:04,VALID,1000.86,VALID,0,VALID,92.2866,VALID,0,VALID,25.5727,VALID,15,VALID,0.307031,
2009-04-13, 01:17:04,VALID,1000.87,VALID,0,VALID,92.134,VALID,0,VALID,25.5707,VALID,15,VALID,0.394922,
2009-04-13, 01:18:04,VALID,1000.86,VALID,0,VALID,92.0196,VALID,0,VALID,25.5727,VALID,15,VALID,0.409375,
2009-04-13, 01:19:04,VALID,1000.86,VALID,0,VALID,91.989,VALID,0,VALID,25.5532,VALID,15,VALID,0.400781,
2009-04-13, 01:20:04,VALID,1000.85,VALID,0,VALID,92.0806,VALID,0,VALID,25.5318,VALID,15,VALID,0.251953,
2009-04-13, 01:21:04,VALID,1000.87,VALID,0,VALID,92.1264,VALID,0.100563,VALID,25.5513,VALID,34,VALID,0.474609,
2009-04-13, 01:22:04,VALID,1000.86,VALID,0,VALID,92.1111,VALID,0,VALID,25.5337,VALID,33,VALID,0.604688,
2009-04-13, 01:23:04,VALID,1000.83,VALID,0,VALID,92.2027,VALID,0,VALID,25.6506,VALID,357,VALID,0.882031,
2009-04-13, 01:24:04,VALID,1000.83,VALID,0,VALID,91.5847,VALID,0,VALID,25.785,VALID,21,VALID,0.447266,
2009-04-13, 01:25:04,VALID,1000.84,VALID,0,VALID,91.0431,VALID,0,VALID,25.8259,VALID,22,VALID,0.423047,
2009-04-13, 01:26:04,VALID,1000.86,VALID,0,VALID,90.8752,VALID,0,VALID,25.8064,VALID,22,VALID,0.476953,
2009-04-13, 01:27:04,VALID,1000.82,VALID,0,VALID,90.8752,VALID,0,VALID,25.8239,VALID,13,VALID,0.416016,
2009-04-13, 01:28:04,VALID,1000.82,VALID,0,VALID,90.7532,VALID,0,VALID,25.9038,VALID,14,VALID,0.214062,
2009-04-13, 01:29:04,VALID,1000.81,VALID,0,VALID,90.6235,VALID,0,VALID,25.9038,VALID,14,VALID,0.338281,
2009-04-13, 01:30:04,VALID,1000.79,VALID,0,VALID,90.4022,VALID,0,VALID,25.9038,VALID,24,VALID,0.311719,
2009-04-13, 01:31:04,VALID,1000.77,VALID,0,VALID,90.2497,VALID,0,VALID,25.8843,VALID,24,VALID,0.168359,
2009-04-13, 01:32:04,VALID,1000.76,VALID,0,VALID,90.242,VALID,0,VALID,25.8648,VALID,24,VALID,0.0382813,
2009-04-13, 01:33:04,VALID,1000.78,VALID,0,VALID,90.2802,VALID,0,VALID,25.8259,VALID,24,VALID,0.214844,
2009-04-13, 01:34:04,VALID,1000.77,VALID,0,VALID,90.3717,VALID,0,VALID,25.7655,VALID,17,VALID,0.392969,
2009-04-13, 01:35:04,VALID,1000.77,VALID,0,VALID,90.4404,VALID,0,VALID,25.7674,VALID,16,VALID,0.330078,
2009-04-13, 01:36:04,VALID,1000.73,VALID,0,VALID,90.4709,VALID,0,VALID,25.7285,VALID,16,VALID,0.110156,
2009-04-13, 01:37:04,VALID,1000.73,VALID,0,VALID,90.5777,VALID,0,VALID,25.6681,VALID,16,VALID,0.128516,
2009-04-13, 01:38:04,VALID,1000.73,VALID,0,VALID,90.6921,VALID,0,VALID,25.6506,VALID,16,VALID,0.128516,
2009-04-13, 01:39:04,VALID,1000.7,VALID,0,VALID,90.7684,VALID,0,VALID,25.5921,VALID,16,VALID,0.015625,
2009-04-13, 01:40:04,VALID,1000.69,VALID,0,VALID,90.9363,VALID,0,VALID,25.5727,VALID,16,VALID,0.329688,
2009-04-13, 01:41:04,VALID,1000.67,VALID,0,VALID,91.0965,VALID,0,VALID,25.5532,VALID,16,VALID,0.149609,
2009-04-13, 01:42:04,VALID,1000.66,VALID,0,VALID,91.2109,VALID,0,VALID,25.5318,VALID,16,VALID,0,
2009-04-13, 01:43:04,VALID,1000.65,VALID,0,VALID,91.2948,VALID,0,VALID,25.4928,VALID,16,VALID,0.0554687,
2009-04-13, 01:44:04,VALID,1000.6,VALID,0,VALID,91.3864,VALID,0,VALID,25.4753,VALID,16,VALID,0.113672,
2009-04-13, 01:45:04,VALID,1000.59,VALID,0,VALID,91.5313,VALID,0,VALID,25.4558,VALID,16,VALID,0.00195313,
2009-04-13, 01:46:04,VALID,1000.55,VALID,0,VALID,91.7068,VALID,0,VALID,25.4149,VALID,16,VALID,0.290625,
2009-04-13, 01:47:04,VALID,1000.52,VALID,0,VALID,91.7831,VALID,0,VALID,25.4169,VALID,16,VALID,0.115234,
2009-04-13, 01:48:04,VALID,1000.53,VALID,0,VALID,91.867,VALID,0,VALID,25.376,VALID,16,VALID,0.212891,
2009-04-13, 01:49:04,VALID,1000.56,VALID,0,VALID,91.9509,VALID,0,VALID,25.3779,VALID,16,VALID,0.375391,
2009-04-13, 01:50:04,VALID,1000.52,VALID,0,VALID,92.0043,VALID,0,VALID,25.3604,VALID,19,VALID,0.577734,
2009-04-13, 01:51:04,VALID,1000.49,VALID,0,VALID,92.2408,VALID,0,VALID,25.3176,VALID,21,VALID,0.384375,
2009-04-13, 01:52:04,VALID,1000.47,VALID,0,VALID,92.3095,VALID,0,VALID,25.3584,VALID,21,VALID,0.308203,
2009-04-13, 01:53:04,VALID,1000.42,VALID,0,VALID,92.3018,VALID,0,VALID,25.339,VALID,21,VALID,0.326953,
2009-04-13, 01:54:04,VALID,1000.39,VALID,0,VALID,92.4391,VALID,0,VALID,25.339,VALID,21,VALID,0.348828,
2009-04-13, 01:55:04,VALID,1000.37,VALID,0,VALID,92.4315,VALID,0,VALID,25.3195,VALID,21,VALID,0.25625,
2009-04-13, 01:56:04,VALID,1000.37,VALID,0,VALID,92.607,VALID,0,VALID,25.337,VALID,9,VALID,0.478125,
2009-04-13, 01:57:04,VALID,1000.37,VALID,0,VALID,92.5612,VALID,0,VALID,25.3779,VALID,358,VALID,0.328906,
2009-04-13, 01:58:04,VALID,1000.32,VALID,0,VALID,92.4849,VALID,0,VALID,25.3565,VALID,4,VALID,0.650391,
2009-04-13, 01:59:04,VALID,1000.33,VALID,0,VALID,92.6299,VALID,0,VALID,25.3974,VALID,28,VALID,0.735547,
2009-04-13, 02:00:04,VALID,1000.33,VALID,0,VALID,92.5688,VALID,0,VALID,25.4753,VALID,358,VALID,0.295703,
2009-04-13, 02:01:04,VALID,1000.3,VALID,0,VALID,92.34,VALID,0,VALID,25.4948,VALID,358,VALID,0.406641,
2009-04-13, 02:02:04,VALID,1000.28,VALID,0,VALID,92.195,VALID,0,VALID,25.5123,VALID,357,VALID,0.582422,
2009-04-13, 02:03:04,VALID,1000.26,VALID,0,VALID,92.0196,VALID,0,VALID,25.5318,VALID,355,VALID,0.508984,
2009-04-13, 02:04:04,VALID,1000.23,VALID,0,VALID,91.8594,VALID,0,VALID,25.5727,VALID,355,VALID,0.503906,
2009-04-13, 02:05:04,VALID,1000.24,VALID,0,VALID,91.8441,VALID,0,VALID,25.5513,VALID,352,VALID,0.601172,
2009-04-13, 02:06:04,VALID,1000.26,VALID,0,VALID,91.7831,VALID,0,VALID,25.6097,VALID,345,VALID,0.307031,
2009-04-13, 02:07:04,VALID,1000.27,VALID,0,VALID,91.6991,VALID,0,VALID,25.6116,VALID,345,VALID,0.317187,
2009-04-13, 02:08:04,VALID,1000.24,VALID,0,VALID,91.6534,VALID,0,VALID,25.6311,VALID,345,VALID,0.338672,
2009-04-13, 02:09:04,VALID,1000.22,VALID,0,VALID,91.5923,VALID,0,VALID,25.6097,VALID,345,VALID,0.182422,
2009-04-13, 02:10:04,VALID,1000.18,VALID,0,VALID,91.5847,VALID,0,VALID,25.6311,VALID,332,VALID,0.650391,
2009-04-13, 02:11:04,VALID,1000.14,VALID,0,VALID,91.4474,VALID,0,VALID,25.67,VALID,320,VALID,0.376563,
2009-04-13, 02:12:04,VALID,1000.15,VALID,0,VALID,91.3406,VALID,0,VALID,25.67,VALID,333,VALID,0.434375,
2009-04-13, 02:13:04,VALID,1000.1,VALID,0,VALID,91.2796,VALID,0,VALID,25.67,VALID,341,VALID,0.548047,
2009-04-13, 02:14:04,VALID,1000.07,VALID,0,VALID,91.2567,VALID,0,VALID,25.6506,VALID,344,VALID,0.527344,
2009-04-13, 02:15:04,VALID,1000.06,VALID,0,VALID,91.3406,VALID,0,VALID,25.6311,VALID,344,VALID,0.578516,
2009-04-13, 02:16:04,VALID,1000.04,VALID,0,VALID,91.3253,VALID,0,VALID,25.6311,VALID,348,VALID,0.650781,
2009-04-13, 02:17:04,VALID,1000.03,VALID,0,VALID,91.4169,VALID,0,VALID,25.6097,VALID,333,VALID,0.45,
2009-04-13, 02:18:04,VALID,1000.02,VALID,0,VALID,91.3101,VALID,0,VALID,25.6116,VALID,353,VALID,0.932813,
2009-04-13, 02:19:04,VALID,999.973,VALID,0,VALID,91.2948,VALID,0,VALID,25.6506,VALID,355,VALID,0.292188,
2009-04-13, 02:20:04,VALID,999.942,VALID,0,VALID,91.3253,VALID,0,VALID,25.6506,VALID,353,VALID,0.829687,
2009-04-13, 02:21:04,VALID,999.946,VALID,0,VALID,91.3024,VALID,0,VALID,25.67,VALID,352,VALID,0.262109,
2009-04-13, 02:22:04,VALID,999.943,VALID,0,VALID,91.2872,VALID,0,VALID,25.67,VALID,354,VALID,0.553125,
2009-04-13, 02:23:04,VALID,999.931,VALID,0,VALID,91.2414,VALID,0,VALID,25.6876,VALID,8,VALID,0.513281,
2009-04-13, 02:24:04,VALID,999.975,VALID,0,VALID,91.1575,VALID,0,VALID,25.709,VALID,1,VALID,0.589844,
2009-04-13, 02:25:04,VALID,1000.01,VALID,0,VALID,91.0965,VALID,0,VALID,25.6681,VALID,350,VALID,0.491406,
2009-04-13, 02:26:04,VALID,1000.03,VALID,0,VALID,91.0278,VALID,0,VALID,25.6681,VALID,352,VALID,0.428906,
2009-04-13, 02:27:04,VALID,1000.02,VALID,0,VALID,91.0202,VALID,0,VALID,25.67,VALID,350,VALID,0.3875,
2009-04-13, 02:28:04,VALID,1000.04,VALID,0,VALID,91.0583,VALID,0,VALID,25.6506,VALID,345,VALID,0.331641,
2009-04-13, 02:29:04,VALID,1000,VALID,0,VALID,91.0965,VALID,0,VALID,25.6506,VALID,344,VALID,0.114844,
2009-04-13, 02:30:04,VALID,1000.03,VALID,0,VALID,91.1346,VALID,0,VALID,25.6292,VALID,344,VALID,0.309766,
2009-04-13, 02:31:04,VALID,1000.03,VALID,0,VALID,91.188,VALID,0,VALID,25.6506,VALID,344,VALID,0.253516,
2009-04-13, 02:32:04,VALID,1000.07,VALID,0,VALID,91.2109,VALID,0,VALID,25.6097,VALID,344,VALID,0,
2009-04-13, 02:33:04,VALID,1000.07,VALID,0,VALID,91.2796,VALID,0.100563,VALID,25.5902,VALID,344,VALID,0,
2009-04-13, 02:34:04,VALID,1000.08,VALID,0,VALID,91.333,VALID,0,VALID,25.5902,VALID,344,VALID,0.00429688,
2009-04-13, 02:35:04,VALID,1000.09,VALID,0,VALID,91.3558,VALID,0,VALID,25.5902,VALID,344,VALID,0,
2009-04-13, 02:36:04,VALID,1000.11,VALID,0,VALID,91.4016,VALID,0,VALID,25.5921,VALID,344,VALID,0,
2009-04-13, 02:37:04,VALID,1000.13,VALID,0,VALID,91.4398,VALID,0,VALID,25.6116,VALID,344,VALID,0,
2009-04-13, 02:38:04,VALID,1000.08,VALID,0,VALID,91.455,VALID,0,VALID,25.5921,VALID,344,VALID,0,
2009-04-13, 02:39:04,VALID,1000.07,VALID,0,VALID,91.5084,VALID,0,VALID,25.5902,VALID,344,VALID,0.00195313,
2009-04-13, 02:40:04,VALID,1000.07,VALID,0,VALID,91.5389,VALID,0,VALID,25.5707,VALID,332,VALID,0.192578,
2009-04-13, 02:41:04,VALID,1000.06,VALID,0,VALID,91.5389,VALID,0.100563,VALID,25.5921,VALID,359,VALID,0.504297,
2009-04-13, 02:42:04,VALID,1000.06,VALID,0,VALID,91.5923,VALID,0.100563,VALID,25.5513,VALID,343,VALID,0.635547,
2009-04-13, 02:43:04,VALID,1000.04,VALID,0,VALID,91.5695,VALID,0,VALID,25.5318,VALID,344,VALID,0.492578,
2009-04-13, 02:44:04,VALID,1000.08,VALID,0,VALID,91.5313,VALID,0.100563,VALID,25.5513,VALID,353,VALID,0.601172,
2009-04-13, 02:45:04,VALID,1000.05,VALID,0,VALID,91.5313,VALID,0.100563,VALID,25.5318,VALID,350,VALID,0.707812,
2009-04-13, 02:46:04,VALID,1000.06,VALID,0,VALID,91.4932,VALID,0,VALID,25.5513,VALID,349,VALID,0.500391,
2009-04-13, 02:47:04,VALID,1000.09,VALID,0,VALID,91.455,VALID,0.100563,VALID,25.5318,VALID,349,VALID,0.342578,
2009-04-13, 02:48:04,VALID,1000.08,VALID,0,VALID,91.4626,VALID,0.100563,VALID,25.5532,VALID,2,VALID,0.625,
2009-04-13, 02:49:04,VALID,1000.06,VALID,0,VALID,91.4398,VALID,0,VALID,25.5727,VALID,341,VALID,0.519531,
2009-04-13, 02:50:04,VALID,1000.07,VALID,0,VALID,91.3711,VALID,0,VALID,25.5921,VALID,342,VALID,0.391797,
2009-04-13, 02:51:04,VALID,1000.06,VALID,0,VALID,91.3558,VALID,0,VALID,25.6116,VALID,343,VALID,0.508203,
2009-04-13, 02:52:04,VALID,1000.04,VALID,0,VALID,91.3024,VALID,0,VALID,25.6116,VALID,343,VALID,0.294141,
2009-04-13, 02:53:04,VALID,1000.03,VALID,0,VALID,91.2338,VALID,0,VALID,25.6097,VALID,345,VALID,0.342969,
2009-04-13, 02:54:04,VALID,1000.03,VALID,0,VALID,91.1956,VALID,0,VALID,25.6097,VALID,345,VALID,0.146094,
2009-04-13, 02:55:04,VALID,1000.01,VALID,0,VALID,91.2185,VALID,0,VALID,25.6506,VALID,345,VALID,0.0929687,
2009-04-13, 02:56:04,VALID,1000.01,VALID,0,VALID,91.2033,VALID,0,VALID,25.6506,VALID,345,VALID,0.0183594,
2009-04-13, 02:57:04,VALID,1000.01,VALID,0,VALID,91.2109,VALID,0,VALID,25.5902,VALID,345,VALID,0.0761719,
2009-04-13, 02:58:04,VALID,999.959,VALID,0,VALID,91.2338,VALID,0,VALID,25.5902,VALID,345,VALID,0.184375,
2009-04-13, 02:59:04,VALID,999.964,VALID,0,VALID,91.2643,VALID,0,VALID,25.5921,VALID,345,VALID,0.0503906,
2009-04-13, 03:00:04,VALID,999.976,VALID,0,VALID,91.2719,VALID,0,VALID,25.5902,VALID,345,VALID,0.157031,
2009-04-13, 03:01:04,VALID,999.956,VALID,0,VALID,91.3177,VALID,0,VALID,25.5727,VALID,345,VALID,0,
2009-04-13, 03:02:04,VALID,999.929,VALID,0,VALID,91.3635,VALID,0,VALID,25.5513,VALID,345,VALID,0.0429688,
2009-04-13, 03:03:04,VALID,999.908,VALID,0,VALID,91.394,VALID,0,VALID,25.5532,VALID,345,VALID,0,
2009-04-13, 03:04:04,VALID,999.926,VALID,0,VALID,91.4321,VALID,0,VALID,25.5337,VALID,345,VALID,0,
2009-04-13, 03:05:04,VALID,999.92,VALID,0,VALID,91.4398,VALID,0,VALID,25.5142,VALID,345,VALID,0,
2009-04-13, 03:06:04,VALID,999.882,VALID,0,VALID,91.4474,VALID,0,VALID,25.5142,VALID,345,VALID,0,
2009-04-13, 03:07:04,VALID,999.883,VALID,0,VALID,91.5542,VALID,0,VALID,25.4753,VALID,345,VALID,0,
2009-04-13, 03:08:04,VALID,999.835,VALID,0,VALID,91.6381,VALID,0,VALID,25.4753,VALID,345,VALID,0.296875,
2009-04-13, 03:09:04,VALID,999.828,VALID,0,VALID,91.7297,VALID,0.100563,VALID,25.4539,VALID,22,VALID,0.717578,
2009-04-13, 03:10:04,VALID,999.81,VALID,0,VALID,91.8441,VALID,0.100563,VALID,25.4539,VALID,23,VALID,0.44375,
2009-04-13, 03:11:04,VALID,999.807,VALID,0,VALID,91.7907,VALID,0.100563,VALID,25.4753,VALID,17,VALID,0.411719,
2009-04-13, 03:12:04,VALID,999.803,VALID,0,VALID,91.7525,VALID,0.100563,VALID,25.4344,VALID,17,VALID,0.275781,
2009-04-13, 03:13:04,VALID,999.78,VALID,0,VALID,91.8822,VALID,0,VALID,25.3955,VALID,17,VALID,0.00117188,
2009-04-13, 03:14:04,VALID,999.774,VALID,0,VALID,91.9204,VALID,0,VALID,25.4169,VALID,17,VALID,0,
2009-04-13, 03:15:04,VALID,999.795,VALID,0,VALID,91.9814,VALID,0.100563,VALID,25.4169,VALID,17,VALID,0,
2009-04-13, 03:16:04,VALID,999.805,VALID,0,VALID,92.0424,VALID,0,VALID,25.376,VALID,17,VALID,0,
2009-04-13, 03:17:04,VALID,999.827,VALID,0,VALID,92.1035,VALID,0,VALID,25.3974,VALID,17,VALID,0.0175781,
2009-04-13, 03:18:04,VALID,999.871,VALID,0,VALID,92.195,VALID,0.100563,VALID,25.376,VALID,17,VALID,0,
2009-04-13, 03:19:04,VALID,999.912,VALID,0,VALID,92.3171,VALID,0,VALID,25.376,VALID,17,VALID,0,
2009-04-13, 03:20:04,VALID,999.932,VALID,0,VALID,92.3629,VALID,0,VALID,25.4169,VALID,17,VALID,0,
2009-04-13, 03:21:04,VALID,999.965,VALID,0,VALID,92.3171,VALID,0,VALID,25.4363,VALID,17,VALID,0,
2009-04-13, 03:22:04,VALID,1000.01,VALID,0,VALID,92.3705,VALID,0.100563,VALID,25.4149,VALID,17,VALID,0,
2009-04-13, 03:23:04,VALID,1000.01,VALID,0,VALID,92.3247,VALID,0,VALID,25.4363,VALID,17,VALID,0,
2009-04-13, 03:24:04,VALID,1000.02,VALID,0,VALID,92.3171,VALID,0,VALID,25.4344,VALID,17,VALID,0,
2009-04-13, 03:25:04,VALID,1000.04,VALID,0,VALID,92.2179,VALID,0,VALID,25.4558,VALID,17,VALID,0,
2009-04-13, 03:26:04,VALID,1000.07,VALID,0,VALID,92.2027,VALID,0,VALID,25.4169,VALID,17,VALID,0,
2009-04-13, 03:27:04,VALID,1000.1,VALID,0,VALID,92.2179,VALID,0,VALID,25.3955,VALID,17,VALID,0,
2009-04-13, 03:28:04,VALID,1000.1,VALID,0,VALID,92.2255,VALID,0.100563,VALID,25.4363,VALID,17,VALID,0,
2009-04-13, 03:29:04,VALID,1000.1,VALID,0,VALID,92.1492,VALID,0,VALID,25.4149,VALID,17,VALID,0.416016,
2009-04-13, 03:30:04,VALID,1000.07,VALID,0,VALID,92.1035,VALID,0,VALID,25.376,VALID,17,VALID,0.495313,
2009-04-13, 03:31:04,VALID,1000.08,VALID,0,VALID,92.134,VALID,0,VALID,25.3176,VALID,17,VALID,0.444922,
2009-04-13, 03:32:04,VALID,1000.08,VALID,0,VALID,92.2103,VALID,0,VALID,25.2981,VALID,17,VALID,0.567578,
2009-04-13, 03:33:04,VALID,1000.13,VALID,0,VALID,92.3095,VALID,0,VALID,25.2806,VALID,17,VALID,0.348828,
2009-04-13, 03:34:04,VALID,1000.11,VALID,0,VALID,92.4163,VALID,0,VALID,25.2416,VALID,17,VALID,0.388281,
2009-04-13, 03:35:04,VALID,1000.13,VALID,0,VALID,92.4773,VALID,0,VALID,25.2202,VALID,17,VALID,0.203906,
2009-04-13, 03:36:04,VALID,1000.14,VALID,0,VALID,92.6299,VALID,0.100563,VALID,25.2416,VALID,17,VALID,0.314844,
2009-04-13, 03:37:04,VALID,1000.11,VALID,0,VALID,92.7138,VALID,0.100563,VALID,25.2416,VALID,17,VALID,0.369531,
2009-04-13, 03:38:04,VALID,1000.1,VALID,0,VALID,92.7672,VALID,0.100563,VALID,25.2007,VALID,17,VALID,0.184766,
2009-04-13, 03:39:04,VALID,1000.09,VALID,0,VALID,92.9198,VALID,0,VALID,25.2416,VALID,349,VALID,0.575781,
2009-04-13, 03:40:04,VALID,1000.1,VALID,0,VALID,92.9808,VALID,0.100563,VALID,25.2202,VALID,349,VALID,0.563672,
2009-04-13, 03:41:04,VALID,1000.08,VALID,0,VALID,93.0189,VALID,0.100563,VALID,25.2416,VALID,350,VALID,0.594922,
2009-04-13, 03:42:04,VALID,1000.11,VALID,0,VALID,93.0266,VALID,0,VALID,25.2416,VALID,350,VALID,0.649219,
2009-04-13, 03:43:04,VALID,1000.08,VALID,0,VALID,93.0647,VALID,0,VALID,25.2592,VALID,352,VALID,0.670313,
2009-04-13, 03:44:04,VALID,1000.07,VALID,0,VALID,93.0876,VALID,0.100563,VALID,25.2592,VALID,352,VALID,0.463281,
2009-04-13, 03:45:04,VALID,1000.06,VALID,0,VALID,93.0723,VALID,0,VALID,25.2397,VALID,353,VALID,0.58125,
2009-04-13, 03:46:04,VALID,1000.07,VALID,0,VALID,93.0571,VALID,0.100563,VALID,25.2397,VALID,353,VALID,0.672266,